GEFSNE_500_meanwind_204.txt.gz
Wind_Speed
5 5 5 5 5 4 5 5 5 5 5 5 6 6 6 6 7 7 8 9 9 10 11 12 12 12 12 12 13 13 13 14 15 15 16 17 17 18
6 6 5 5 4 4 5 5 5 5 5 6 6 6 6 7 8 8 9 9 10 11 11 12 12 13 13 13 14 14 15 15 15 16 17 18 18 19
6 6 5 5 5 5 5 6 6 6 6 6 7 7 7 8 8 9 10 10 11 12 12 12 13 13 13 14 15 15 16 16 17 18 18 18 19 20
6 6 5 5 6 6 6 6 6 7 7 8 8 8 9 10 10 11 11 11 12 13 13 13 14 14 15 15 16 16 17 17 18 19 19 20 20 21
6 6 6 6 6 6 7 7 8 8 8 9 9 9 10 10 11 11 12 13 14 14 14 15 16 16 16 17 17 18 18 19 19 20 21 21 22 22
7 7 7 7 7 7 8 8 9 9 10 10 10 10 10 11 11 12 13 14 15 15 16 16 17 18 18 18 19 19 20 20 21 21 22 22 23 24
9 9 8 8 9 9 9 9 9 10 10 10 11 11 12 12 13 13 14 15 16 16 17 17 18 19 19 20 21 21 22 22 23 23 24 24 25 26
10 10 10 10 10 10 10 10 10 10 11 12 12 13 14 14 15 16 16 17 17 18 19 19 20 20 21 22 22 23 24 24 25 25 26 27 27 28
11 11 11 11 12 12 12 12 12 13 13 14 14 15 15 16 17 18 18 19 20 20 21 21 22 22 23 23 24 24 25 26 26 27 28 28 29 30
13 13 13 13 13 13 13 14 14 15 15 16 16 17 18 19 19 20 21 21 22 22 23 23 23 24 24 25 25 26 27 27 28 29 30 31 32 33
15 15 15 15 15 15 16 16 16 17 17 18 19 19 20 20 21 21 22 23 23 23 23 24 25 25 26 27 27 28 29 29 30 31 32 33 33 34
16 16 15 15 16 16 17 18 18 19 19 20 20 21 21 21 22 23 23 24 24 24 24 25 26 27 27 28 29 29 30 30 31 32 33 34 34 35
17 17 17 17 17 17 18 19 20 20 21 21 21 22 23 24 24 24 25 25 25 25 26 26 27 28 29 29 31 31 32 32 33 33 34 34 35 36
19 19 19 19 19 20 20 20 20 21 21 22 22 23 23 24 24 25 25 26 26 27 28 28 29 30 30 31 32 32 33 33 34 34 34 34 35 35
20 20 20 21 21 21 21 21 21 21 22 22 22 23 23 24 24 25 26 26 27 28 29 29 30 31 31 32 32 33 33 34 34 34 34 34 35 35
22 21 22 22 22 22 22 22 22 23 23 23 24 24 25 25 25 26 26 27 27 28 28 30 31 32 32 32 33 34 34 34 34 34 34 35 35 36
23 23 23 24 24 23 23 23 23 24 24 25 25 25 26 26 27 27 27 27 27 28 29 31 32 33 33 34 34 34 35 35 35 35 36 36 37 38
24 24 24 24 24 24 24 24 25 25 25 26 26 26 27 27 27 27 28 28 29 30 31 32 32 33 34 34 35 35 35 35 36 36 37 38 38 39
24 24 24 24 24 24 24 24 25 25 26 26 26 27 28 28 29 29 29 30 30 31 32 33 34 34 34 34 34 36 36 36 37 37 38 38 38 38
23 23 23 24 24 24 24 24 25 26 27 27 27 28 28 29 29 30 30 31 31 32 33 34 35 35 35 35 36 36 37 38 38 38 38 38 38 38
22 23 24 24 24 24 24 25 26 27 27 28 28 29 29 30 30 31 31 32 32 33 34 34 35 36 37 37 37 37 38 39 39 39 39 39 39 39
23 24 24 24 24 25 25 26 27 28 29 30 30 31 31 32 32 32 33 33 34 34 35 36 36 37 38 38 39 39 39 39 40 41 41 41 41 41
23 23 24 24 25 26 27 27 27 28 29 30 31 31 32 33 33 34 34 35 35 36 36 37 38 39 39 40 40 40 40 40 40 41 41 42 42 42

GEFSNE_500_meanwind_210.txt.gz
Wind_Speed
7 7 8 8 8 7 8 7 7 7 7 7 7 8 7 7 7 7 8 8 9 10 10 11 12 12 12 13 13 13 13 13 14 14 15 15 16 16
8 8 8 8 7 7 7 7 7 7 7 7 7 7 7 7 8 8 8 9 10 11 11 12 13 13 13 13 14 14 14 14 15 16 16 16 17 18
9 8 8 8 8 8 8 8 7 8 8 8 8 8 8 9 9 10 10 11 12 12 12 13 14 14 14 15 15 15 16 16 16 16 17 18 18 19
8 8 8 8 8 8 8 8 8 8 8 9 9 9 9 10 10 11 12 12 13 13 13 14 14 15 15 16 16 16 16 17 17 18 18 19 20 20
8 8 8 8 9 9 9 9 9 9 9 10 10 10 10 10 11 12 13 13 14 14 14 15 15 16 16 17 17 17 17 18 18 19 20 21 21 22
9 9 9 9 9 9 9 10 10 10 10 10 11 11 11 12 12 13 14 15 16 16 16 16 16 17 17 17 18 18 18 19 20 21 22 23 23 23
11 11 10 10 10 10 10 10 11 11 12 12 12 13 13 14 15 15 16 17 17 18 18 18 18 18 18 18 19 19 20 21 22 23 24 25 25 25
12 12 12 12 11 11 12 12 12 12 13 13 14 15 16 16 17 17 17 18 18 19 19 19 19 19 19 20 21 22 22 23 24 25 26 26 27 27
13 13 13 12 13 13 13 14 14 14 14 15 16 16 17 18 18 18 19 19 20 20 20 20 20 20 21 22 23 24 24 25 26 27 28 28 29 29
15 15 15 14 14 14 14 14 14 15 15 16 17 18 19 19 19 19 20 20 21 21 21 22 22 22 23 24 24 25 26 27 28 28 29 29 29 30
17 17 16 16 16 16 16 16 16 16 17 17 18 19 19 20 21 21 21 22 22 23 23 24 24 24 25 25 26 27 28 29 30 30 30 30 30 31
18 18 18 18 18 18 18 18 18 18 19 19 20 20 21 21 22 22 22 23 23 24 24 24 25 25 26 27 28 29 29 30 30 31 31 30 30 30
19 19 20 20 20 20 20 20 20 20 20 21 22 22 22 22 23 23 24 24 24 24 24 25 26 26 27 28 29 30 30 31 31 31 31 31 31 31
19 20 21 21 22 22 21 21 21 21 22 22 22 22 22 23 23 24 24 24 24 24 25 26 26 27 28 29 29 30 30 31 32 32 32 32 32 32
21 21 21 22 22 22 22 22 22 22 23 23 23 23 23 24 24 24 25 25 25 25 26 26 27 28 29 29 30 31 32 32 32 33 33 33 33 33
23 22 22 22 23 23 22 23 23 23 23 23 24 24 24 25 26 26 26 26 27 27 28 28 29 30 31 31 31 32 32 32 33 34 34 33 33 34
24 24 24 23 23 24 24 24 24 24 23 23 24 25 25 26 26 27 27 28 28 28 29 30 31 32 32 33 33 33 34 34 35 35 35 35 35 36
24 23 24 24 25 25 25 25 24 25 25 26 26 26 26 26 27 28 28 29 29 29 30 31 32 32 33 34 34 35 35 36 36 36 36 36 37 37
24 24 25 25 25 25 25 25 25 26 26 26 26 26 28 28 29 29 29 30 30 30 31 32 33 33 34 34 34 36 36 36 36 36 36 36 37 37
25 25 25 26 26 25 25 25 25 25 26 26 27 28 29 29 29 29 30 31 31 32 32 33 34 35 35 35 35 36 37 37 37 37 37 37 36 37
25 25 25 25 25 24 23 24 25 26 26 27 28 29 30 30 31 32 32 32 33 33 33 33 34 35 36 36 36 36 36 37 38 38 37 37 37 38
25 25 25 24 23 24 24 25 26 27 27 28 28 29 30 31 31 32 33 33 34 34 35 35 35 36 37 38 38 37 37 37 38 38 38 39 39 39
24 24 23 23 24 25 26 26 27 27 28 29 29 30 30 31 31 32 33 33 34 35 35 36 36 37 38 38 38 37 37 38 38 38 39 40 41 41

GEFSNE_500_meanwind_216.txt.gz
Wind_Speed
8 8 8 8 8 8 8 8 8 8 7 7 7 7 7 8 8 8 8 8 8 9 9 9 10 10 11 11 12 12 12 13 13 14 14 14 15 16
8 9 9 9 9 9 9 9 9 9 9 9 8 9 8 8 8 8 8 8 9 9 10 11 11 12 12 12 12 13 13 14 14 15 15 15 16 17
9 9 9 9 10 10 9 9 9 9 9 9 9 8 8 8 8 8 9 10 11 12 12 12 13 13 14 14 15 15 15 16 16 16 17 17 17 18
10 10 10 10 10 10 9 9 9 9 9 8 8 9 9 9 9 10 10 11 12 13 13 14 14 15 15 15 16 17 17 17 18 18 18 19 19 19
11 11 10 10 10 10 10 10 10 10 9 9 9 9 10 10 10 11 11 12 12 14 14 15 15 16 16 16 17 18 17 17 18 18 19 20 21 21
12 12 12 11 11 11 11 11 11 10 10 10 10 10 11 11 12 12 13 13 13 14 15 16 16 17 17 18 18 18 19 19 20 20 21 21 22 23
12 12 12 12 12 12 12 12 12 12 12 12 12 13 13 13 13 14 14 15 15 15 16 17 18 19 19 19 20 20 20 21 21 21 22 22 23 24
14 14 14 13 13 13 14 14 14 13 13 14 14 14 14 15 15 15 16 17 17 18 18 18 19 19 20 20 21 21 22 22 22 23 23 24 25 25
15 15 15 15 15 15 15 15 15 15 15 15 15 16 16 17 17 17 17 18 18 19 19 19 19 19 20 20 21 22 22 23 24 24 25 26 26 27
16 16 16 16 16 17 17 17 17 17 17 17 17 17 17 18 18 18 18 19 19 20 20 20 20 21 21 22 22 23 24 24 25 25 27 27 28 29
17 17 17 17 18 18 18 18 19 19 19 19 19 19 19 19 19 19 19 20 20 21 21 21 21 22 23 24 24 25 25 26 26 27 28 29 29 30
18 18 18 18 19 19 20 20 20 20 21 21 21 21 20 21 21 22 22 22 22 22 22 23 23 24 25 25 26 26 27 27 28 29 30 30 31 31
19 19 19 20 20 20 21 22 22 22 22 22 22 22 22 22 22 23 24 24 24 24 24 24 25 25 25 26 27 28 28 29 30 30 31 31 31 31
20 20 21 22 22 22 22 22 23 24 24 24 23 23 23 24 24 24 25 25 25 25 26 26 26 26 26 27 27 28 29 30 31 31 31 31 31 31
21 22 22 23 23 23 24 24 25 25 26 26 25 24 24 25 25 24 25 25 26 26 26 26 26 26 27 28 28 29 30 30 31 31 31 31 32 32
22 23 23 24 24 24 25 25 25 26 26 25 26 26 26 26 25 25 25 25 26 26 27 27 27 27 28 29 30 30 30 31 31 31 31 32 32 33
23 23 24 24 25 25 26 26 26 26 26 26 26 26 26 26 25 26 26 27 27 27 28 28 28 29 29 30 30 30 31 31 32 32 32 32 33 33
25 25 25 26 26 27 27 26 26 26 26 27 27 27 27 27 27 26 26 27 27 27 28 28 29 30 30 30 30 31 31 32 33 33 33 33 33 34
26 26 26 27 27 27 26 26 26 26 26 26 27 27 27 27 27 27 27 27 28 28 29 30 31 31 31 30 31 32 33 33 34 34 34 35 35 35
26 26 26 25 25 25 25 25 24 24 24 25 26 27 27 27 28 28 28 28 29 30 30 31 31 32 32 32 32 33 34 35 35 35 35 36 36 37
26 26 26 25 25 24 24 24 24 24 24 24 25 26 26 27 27 28 29 29 29 30 31 32 32 33 33 33 34 34 35 36 36 37 37 37 37 37
25 26 25 25 24 24 24 24 24 24 24 25 26 27 27 28 28 29 30 30 31 31 32 32 33 34 34 35 35 35 36 36 37 37 38 39 38 38
26 26 25 25 23 23 23 23 23 24 25 26 26 27 28 29 29 29 30 31 31 32 33 34 34 34 35 35 35 35 36 36 37 37 38 38 39 39

GEFSNE_500_meanwind_222.txt.gz
Wind_Speed
11 11 11 10 10 10 10 10 10 10 10 11 10 10 10 11 11 11 11 11 11 11 11 11 11 11 12 12 12 13 13 14 15 15 15 16 16 16
10 10 10 11 11 11 11 11 12 11 11 11 11 11 11 11 11 11 12 12 12 11 11 12 12 13 14 14 14 14 15 16 16 16 16 17 17 17
10 10 10 11 11 11 11 12 12 12 11 11 11 11 12 12 12 12 12 12 12 12 12 13 13 14 14 15 16 16 16 17 18 18 18 18 19 19
11 11 11 11 11 11 11 11 12 12 12 12 12 13 12 12 13 13 13 13 13 13 13 14 14 15 16 16 17 17 18 18 19 19 19 20 20 20
12 12 12 12 12 12 11 12 12 12 12 12 13 13 13 13 14 14 14 14 15 15 15 15 16 16 16 17 17 18 18 19 19 19 20 20 21 21
13 13 13 13 13 13 13 12 13 12 13 13 13 13 14 14 15 15 15 16 16 16 16 16 17 17 17 17 18 18 19 19 19 20 21 21 21 22
14 14 14 14 14 14 14 14 14 14 14 14 15 15 15 15 15 16 16 16 16 17 17 18 18 18 18 18 19 19 20 20 20 21 22 22 23 23
15 15 15 15 15 16 16 15 15 15 16 16 16 16 16 16 16 17 17 17 17 18 18 19 19 19 20 20 20 20 21 21 22 23 23 24 24 25
16 16 17 17 17 17 18 18 17 17 18 18 18 18 18 17 17 18 18 19 19 19 20 19 20 20 21 21 21 21 22 22 23 24 24 25 25 25
18 18 18 19 19 19 19 19 19 20 20 20 19 19 19 19 19 18 19 20 20 20 21 20 20 20 21 21 21 22 23 23 24 25 25 25 26 27
19 19 19 19 19 20 21 21 21 21 21 21 21 21 21 21 20 21 21 21 21 21 21 21 21 21 21 22 23 24 24 24 25 25 26 27 27 27
21 21 21 21 21 22 22 22 22 22 22 22 22 21 21 22 22 22 22 22 22 21 22 22 22 22 22 23 24 25 25 26 26 27 27 27 27 27
22 22 22 22 22 22 23 23 23 23 24 23 23 23 22 22 22 22 22 22 22 22 22 22 23 23 23 24 25 26 26 27 27 28 28 28 28 28
23 23 23 23 22 23 23 24 24 24 24 24 24 24 23 23 23 23 23 22 23 23 23 23 24 24 24 25 25 26 27 28 28 28 28 28 29 29
23 23 23 23 22 23 23 23 23 23 24 23 23 23 23 24 24 24 24 24 24 24 25 25 25 26 27 27 27 27 28 28 28 28 28 28 28 29
23 23 23 23 23 23 22 22 23 24 24 24 23 24 23 23 24 24 25 25 26 26 27 27 27 28 29 29 29 28 28 28 28 28 28 28 29 29
23 23 23 23 23 23 23 22 23 24 24 24 24 24 24 24 24 25 26 26 27 28 28 29 29 29 29 29 29 29 28 29 29 29 29 29 29 30
24 23 23 23 23 23 22 22 23 23 23 23 24 24 24 25 25 25 25 26 27 28 29 29 29 30 30 29 29 29 29 29 30 31 31 31 31 31
24 24 23 23 23 23 23 24 25 24 24 23 24 24 24 24 24 25 25 26 27 27 28 28 29 30 30 29 29 30 30 31 31 32 32 32 32 33
24 24 24 23 23 24 24 25 25 25 24 24 24 24 24 24 25 25 26 26 26 26 26 27 29 29 30 30 30 31 31 32 32 32 32 32 33 34
24 24 24 24 24 24 24 24 25 25 25 24 24 25 25 25 25 25 25 25 26 26 27 28 29 30 30 31 31 31 32 33 33 33 33 33 33 34
24 24 24 24 24 25 26 26 26 26 25 25 24 25 25 25 25 25 24 25 25 26 27 27 28 29 29 30 31 32 32 33 34 34 35 35 36 36
24 24 24 24 24 25 26 26 26 25 25 24 24 24 24 24 23 23 23 23 24 24 24 24 25 26 27 28 30 32 32 33 34 34 35 36 37 37

GEFSNE_500_meanwind_228.txt.gz
Wind_Speed
8 9 9 9 10 10 10 10 11 10 11 11 12 12 12 12 12 12 12 13 13 13 13 13 12 12 13 13 13 13 13 13 14 15 15 15 16 16
9 10 10 10 10 10 11 11 11 11 11 11 11 12 12 12 12 13 13 13 14 14 14 13 13 14 14 14 14 14 14 15 15 15 16 16 17 18
11 11 11 11 11 11 11 11 12 12 12 11 11 11 12 13 13 14 14 14 14 14 14 14 14 14 15 15 16 16 16 16 16 16 17 18 18 18
12 12 12 12 12 12 12 12 12 12 12 12 12 12 13 13 14 14 14 14 14 14 14 14 15 15 16 17 17 17 17 17 17 17 17 18 18 19
13 13 13 13 13 13 13 13 13 13 13 13 13 13 13 14 14 15 15 15 15 15 15 16 16 16 17 17 18 18 18 18 18 18 19 19 20 20
14 14 14 14 14 14 14 14 14 14 14 14 14 15 15 15 15 15 15 15 16 16 16 17 17 17 18 18 18 19 19 19 19 19 20 20 21 21
15 15 15 15 15 15 15 15 15 15 15 15 16 16 16 16 17 17 17 17 17 17 17 17 18 18 18 18 18 18 19 19 20 21 21 22 22 22
17 17 16 16 16 16 17 17 17 17 17 17 18 18 18 18 17 17 17 18 18 18 18 18 18 18 18 18 19 20 20 21 21 22 22 22 22 22
18 18 18 18 18 17 18 18 18 19 19 19 20 20 19 19 19 19 19 19 19 19 19 19 19 19 19 19 20 21 22 22 22 22 22 22 22 22
18 19 19 19 19 19 19 20 20 20 21 21 21 21 20 20 20 19 20 20 20 21 21 21 20 20 20 20 21 22 22 22 22 22 22 23 23 23
20 20 20 21 21 21 21 21 21 21 22 22 22 21 21 21 20 20 20 20 20 20 20 21 21 22 22 21 22 22 22 23 22 22 22 23 24 24
21 21 21 22 23 23 23 22 22 22 22 22 22 21 21 21 21 21 21 21 21 21 21 21 22 22 22 23 23 23 23 23 23 24 23 24 24 24
21 21 21 22 23 23 23 23 22 22 22 22 23 22 22 21 21 21 21 21 21 21 22 22 22 23 23 23 23 24 24 24 24 24 24 24 24 24
22 22 22 22 23 23 23 22 22 22 21 21 22 21 22 21 21 21 22 21 22 22 22 23 23 24 24 24 24 25 25 25 25 25 25 25 25 25
23 23 23 23 23 22 23 23 22 22 21 21 21 21 21 21 21 21 22 22 22 23 24 24 24 24 24 25 25 26 26 26 26 26 26 26 26 26
24 24 24 24 23 23 23 23 23 22 22 22 21 22 22 22 22 23 23 23 24 24 25 25 25 25 25 26 27 27 27 27 26 26 27 27 28 28
25 25 25 25 24 24 24 24 23 23 23 23 23 23 23 22 23 23 23 24 24 24 24 25 25 26 27 27 27 27 27 27 27 27 28 28 28 29
25 25 24 24 24 24 24 23 23 23 24 24 23 23 23 23 24 24 24 25 25 25 25 25 25 25 26 27 27 27 27 27 28 28 29 29 29 30
25 25 25 24 24 23 23 23 23 23 23 24 24 24 24 24 24 24 24 25 25 25 25 24 25 25 25 25 25 26 27 27 28 28 29 30 30 31
24 24 24 24 24 24 24 23 23 23 23 24 25 25 24 24 24 24 24 24 25 25 24 24 25 25 25 25 25 25 26 26 26 27 28 29 30 31
24 23 24 24 24 24 24 24 24 24 25 25 25 24 24 24 24 25 25 25 25 24 24 24 24 24 24 24 24 25 25 25 26 27 28 29 30 30
24 24 24 25 25 25 25 25 24 25 25 25 24 24 24 25 24 24 24 24 23 23 23 23 23 23 24 25 25 25 25 25 26 27 29 30 30 30
24 24 24 25 25 25 25 25 24 24 24 24 24 23 23 24 23 23 23 23 22 22 22 23 23 24 24 25 25 26 26 26 27 28 30 31 31 31

GEFSNE_500_meanwind_234.txt.gz
Wind_Speed
11 11 11 11 11 11 12 12 12 12 12 12 12 12 13 13 13 13 13 13 13 13 13 14 13 12 12 12 13 13 14 13 13 13 14 14 14 15
12 12 12 12 12 13 13 13 13 13 13 13 13 13 13 13 13 13 13 13 14 14 13 13 12 12 12 12 13 13 14 14 13 14 15 15 16 16
13 13 13 13 13 13 13 14 14 13 13 13 13 13 13 13 13 13 13 14 14 14 14 13 13 14 14 14 14 14 14 14 15 15 16 16 17 17
15 15 14 15 14 14 14 14 14 14 14 14 14 14 14 14 14 14 15 15 15 15 15 15 15 15 15 15 15 15 15 15 16 17 17 18 18 19
16 16 16 16 15 15 15 15 15 15 15 15 15 15 15 15 15 15 15 15 15 15 16 16 16 16 16 16 16 17 17 17 17 18 18 18 19 20
17 17 17 16 16 16 16 16 16 16 16 16 16 15 16 16 16 16 16 16 16 17 17 17 17 17 17 17 18 19 19 19 19 20 20 20 21 21
18 18 18 18 17 17 17 17 17 17 17 17 17 17 16 16 17 17 17 17 17 18 17 17 18 18 18 19 19 19 20 20 21 21 21 21 21 21
19 19 19 19 18 18 18 18 18 18 18 18 18 18 18 18 18 18 18 18 18 18 18 18 19 19 19 20 20 21 21 21 21 21 21 21 20 20
20 20 20 19 19 19 19 19 19 19 19 19 19 19 18 19 19 19 19 19 19 18 18 18 18 18 19 20 21 21 21 21 21 21 21 21 20 20
22 22 22 21 21 20 20 19 20 20 20 20 20 20 20 20 20 20 20 20 19 18 18 19 19 19 18 19 20 21 21 21 21 22 22 21 21 21
22 22 23 23 22 22 21 20 20 20 20 20 20 21 21 21 20 20 20 20 19 19 19 20 20 19 19 19 20 21 21 21 21 22 22 22 22 22
22 22 22 23 23 23 22 21 21 21 21 21 21 22 22 21 20 20 21 21 21 20 20 20 20 21 21 21 21 21 22 22 22 23 23 22 22 23
22 22 22 22 22 23 23 23 22 22 22 22 22 22 21 21 20 20 21 21 21 21 21 21 22 22 22 22 22 22 22 22 23 24 24 23 23 23
21 21 21 22 22 23 23 24 24 23 22 22 22 21 21 21 20 20 21 21 21 21 21 22 22 23 23 22 22 22 23 23 24 25 25 24 24 24
22 22 22 22 22 23 23 24 24 23 23 23 22 22 21 22 22 21 21 21 21 22 22 22 23 23 23 23 23 23 23 23 24 24 24 24 24 24
22 22 23 23 23 23 23 23 24 24 24 23 23 23 22 22 22 22 22 22 22 22 23 23 23 23 23 23 23 23 22 23 23 23 24 25 25 25
22 23 23 23 23 23 23 23 24 24 24 23 23 23 23 23 23 22 22 22 22 22 23 22 23 23 24 24 24 23 23 23 23 24 24 24 25 25
23 23 24 24 24 24 23 24 24 24 24 23 23 23 23 23 23 23 24 24 24 24 24 23 23 24 24 24 24 24 24 25 24 24 24 24 25 25
24 24 24 24 24 23 23 24 23 24 24 23 23 23 23 23 24 23 24 24 24 24 24 24 24 24 24 24 24 25 25 25 25 24 24 25 25 26
24 24 24 24 24 24 23 23 23 22 23 23 23 24 24 24 24 23 24 24 24 24 24 24 24 24 24 24 24 24 24 24 25 25 25 25 26 26
24 24 24 24 24 24 24 24 23 23 23 23 23 24 25 25 25 24 24 24 24 24 24 23 23 24 24 24 24 24 24 25 25 25 25 25 25 26
24 24 24 25 25 25 24 24 23 23 23 23 23 24 24 25 25 26 26 25 25 25 25 25 25 25 25 25 25 25 25 25 25 25 26 26 26 27
23 24 24 24 24 24 24 24 24 23 24 24 24 24 24 25 25 25 26 25 25 26 25 25 25 25 25 25 25 25 25 26 26 26 26 27 27 27

GEFSNE_500_meanwind_240.txt.gz
Wind_Speed
11 12 12 12 12 12 12 12 12 12 12 11 11 12 12 12 12 12 12 12 13 13 13 14 14 14 14 14 14 14 13 14 14 14 14 14 14 15
12 12 13 13 13 13 13 13 13 13 13 12 12 12 12 12 12 12 12 13 13 13 13 13 14 14 14 15 14 13 13 14 14 14 15 15 15 16
13 14 14 14 14 14 14 14 14 14 13 14 14 13 13 13 13 13 13 13 13 14 14 14 14 14 14 14 14 14 14 14 15 15 16 16 17 17
14 15 15 15 15 15 15 15 15 15 14 14 14 14 15 14 14 13 13 14 14 14 14 15 15 14 15 15 15 16 16 16 17 17 18 18 18 18
16 16 16 16 16 16 16 16 16 16 16 15 15 15 15 15 15 14 15 14 15 15 15 15 15 15 16 16 17 17 17 18 18 19 20 20 20 19
17 17 18 18 18 18 17 17 17 17 16 16 16 16 15 15 15 15 15 15 15 15 15 15 15 16 16 16 17 17 18 18 19 20 20 20 20 21
18 18 19 19 19 19 18 18 17 17 16 16 16 16 16 16 16 16 16 17 17 17 17 16 16 16 16 16 17 17 18 19 19 19 20 20 21 21
18 19 19 20 20 20 19 19 18 18 17 17 17 17 17 17 17 17 17 18 18 18 17 17 16 16 17 17 17 18 18 19 19 19 20 20 20 20
19 20 20 21 21 21 20 20 19 19 18 18 17 18 18 17 18 18 18 18 18 18 18 17 17 17 17 17 18 18 18 19 19 20 20 20 20 20
20 20 21 21 21 21 20 19 19 19 19 19 18 18 19 18 18 19 19 19 18 18 18 18 18 18 18 18 18 18 18 19 19 20 20 20 20 20
21 21 21 21 21 21 21 20 20 20 20 20 19 20 19 19 19 19 19 19 19 18 19 19 19 19 18 18 19 19 20 20 20 20 20 21 21 21
21 21 21 21 21 21 21 21 20 20 21 20 20 20 20 20 20 20 19 19 19 19 19 19 19 19 18 19 20 20 20 20 21 21 21 21 22 22
21 21 21 21 21 21 21 21 21 21 21 22 21 21 21 21 21 21 20 19 19 19 19 20 19 20 20 19 20 20 21 21 21 21 21 21 21 22
21 21 21 21 21 21 20 21 21 22 22 22 22 22 21 21 21 21 21 20 19 19 19 20 20 21 21 21 21 21 21 21 20 20 20 21 21 22
22 22 22 22 21 21 20 20 21 21 21 22 22 22 21 21 22 22 22 21 20 20 20 20 20 21 20 20 20 21 21 21 21 21 21 22 22 22
22 22 22 22 22 22 21 20 21 21 21 22 22 22 21 22 22 22 22 22 21 21 20 20 20 20 21 21 21 21 22 21 21 21 22 22 22 23
22 22 22 22 22 23 22 22 22 22 22 22 22 22 22 22 22 22 22 22 22 21 21 21 21 21 22 23 23 23 23 22 22 22 22 22 23 23
23 23 23 23 22 23 23 23 23 23 23 23 23 23 23 23 22 22 23 22 22 22 22 22 22 23 23 23 24 24 23 23 23 23 23 23 23 24
24 24 24 23 24 24 24 24 24 24 24 23 23 23 23 23 23 23 23 22 22 22 23 23 23 23 23 23 23 24 24 24 24 24 24 24 25 25
25 25 25 25 25 24 24 24 24 24 24 23 23 23 23 23 23 23 23 23 23 23 24 24 24 24 24 24 24 24 24 24 25 25 25 25 25 26
25 25 25 24 24 24 24 24 24 24 24 24 24 24 24 24 24 24 24 25 25 25 25 25 26 25 25 25 25 25 25 25 25 26 26 26 27 27
25 24 24 24 24 24 24 23 23 24 25 25 25 24 24 25 24 25 25 25 26 26 26 27 27 27 26 26 26 25 26 26 27 27 28 28 28 28
25 25 25 25 24 25 24 24 24 24 25 25 25 25 25 25 25 25 26 26 26 27 28 28 28 28 28 28 28 28 28 28 28 28 29 29 29 29

GEFSNE_500_meanwind_246.txt.gz
Wind_Speed
11 11 11 11 12 13 13 14 14 14 15 15 15 15 15 15 14 13 13 13 14 13 13 14 14 14 14 15 15 15 16 16 16 16 15 15 16 17
12 12 11 12 13 14 14 14 14 14 15 15 15 14 14 14 14 14 14 14 14 14 14 15 15 15 14 15 16 16 16 16 16 17 17 17 17 17
12 12 13 13 14 14 15 15 15 15 16 15 15 14 14 14 14 14 14 14 14 14 14 15 15 15 15 15 15 15 16 16 17 17 17 18 18 19
14 14 14 15 15 15 16 16 16 16 17 16 15 15 15 14 14 15 15 15 15 14 15 15 16 16 15 15 15 16 16 16 16 16 17 18 19 19
15 15 16 16 17 17 17 17 17 18 18 17 16 16 16 15 15 15 15 15 15 15 15 16 16 16 16 16 15 15 16 16 16 17 18 18 19 19
17 17 17 18 18 18 19 19 19 19 19 18 18 17 17 16 16 16 16 16 16 16 16 16 16 16 16 16 16 16 16 16 17 18 18 18 18 18
18 18 19 19 20 19 20 20 20 20 20 19 18 18 18 17 18 17 18 17 18 18 18 17 17 17 17 17 17 17 17 18 18 18 18 18 17 17
19 20 20 20 21 21 21 21 20 20 20 20 19 19 18 18 19 19 19 19 19 19 19 18 18 18 18 18 18 18 17 17 18 18 18 18 17 17
20 21 21 21 21 21 21 20 20 20 20 20 20 20 19 19 20 20 20 21 21 20 20 19 19 19 18 18 18 19 19 18 19 19 18 18 18 18
21 22 22 22 21 21 21 21 21 21 21 21 21 21 21 21 21 20 20 21 21 20 20 20 19 19 19 19 19 19 19 19 19 19 19 19 20 20
21 22 22 22 21 21 22 22 22 22 22 22 21 21 20 20 20 20 20 20 20 20 20 20 20 20 20 20 20 20 20 20 20 20 20 20 20 21
22 22 22 22 22 22 22 22 22 22 22 22 21 21 21 21 21 21 21 20 20 21 21 21 21 20 20 20 21 20 20 20 20 20 20 20 20 20
22 22 22 23 23 23 23 22 22 22 22 22 22 22 23 22 22 22 22 21 21 21 21 21 21 21 21 20 20 20 20 20 21 21 21 21 20 20
22 22 22 23 24 23 23 23 23 23 23 23 23 23 23 23 22 22 22 22 22 21 21 22 22 21 21 20 20 20 20 20 20 21 21 21 21 21
23 23 23 23 24 24 24 24 23 23 23 23 23 24 23 23 23 22 22 22 22 22 22 22 22 22 21 21 20 20 21 21 21 21 22 21 22 22
24 25 25 24 25 25 25 24 24 25 25 24 24 24 24 24 24 23 22 22 22 22 22 22 22 21 21 21 21 21 21 21 21 21 22 22 22 22
26 26 26 25 25 26 26 26 25 26 26 26 25 25 25 25 25 24 23 23 23 23 23 23 22 22 22 22 22 22 22 22 22 22 23 23 23 23
27 27 26 26 26 27 26 26 26 26 26 26 26 25 26 26 26 25 24 23 24 24 24 24 23 23 23 23 23 23 23 23 23 23 23 23 23 23
27 27 27 27 27 27 27 26 26 26 26 26 26 26 26 26 26 26 25 25 24 24 25 25 25 25 24 24 24 25 25 25 25 25 24 24 24 24
28 27 27 27 27 27 27 26 26 26 26 26 26 26 26 26 25 25 25 25 25 25 25 25 25 25 25 26 25 25 26 26 26 26 26 26 26 26
28 28 27 27 27 26 26 26 26 26 26 26 26 26 26 26 25 25 25 25 26 26 26 26 26 26 26 26 27 27 27 28 28 27 28 28 28 27
29 28 28 27 26 26 26 26 26 26 26 27 26 26 26 26 26 26 26 26 26 26 27 27 27 27 27 27 28 28 28 29 28 28 29 29 29 29
28 28 28 27 26 27 27 27 26 26 26 26 25 25 26 26 26 26 26 26 27 27 27 27 27 27 27 27 28 28 29 29 30 30 29 29 29 29

GEFSNE_500_meanwind_252.txt.gz
Wind_Speed
10 10 10 10 10 11 12 12 12 13 14 15 15 15 14 14 14 14 15 14 14 14 13 13 13 13 13 13 14 14 15 15 15 16 16 16 16 16
11 11 11 12 12 12 12 12 12 13 14 14 15 15 15 14 15 15 15 14 14 14 13 13 13 14 14 15 15 15 15 16 16 16 16 16 16 16
12 13 13 13 13 13 13 13 13 13 14 14 14 14 14 15 15 15 15 15 15 14 14 14 13 14 14 14 15 15 15 16 16 16 16 16 17 17
14 14 14 14 14 14 14 14 14 14 15 15 15 15 15 15 15 15 15 16 15 15 15 15 14 14 15 15 16 16 16 16 16 16 16 17 17 17
15 15 15 15 15 15 15 15 15 15 16 16 16 16 17 17 17 17 16 16 16 16 15 15 15 16 16 16 16 17 16 16 16 16 16 16 16 16
16 17 17 17 17 16 16 16 16 17 17 17 17 17 18 18 17 17 17 17 17 17 17 16 16 16 16 17 16 16 16 16 16 16 16 17 16 16
18 18 18 18 18 17 17 17 18 18 18 18 18 18 18 18 18 18 18 18 18 17 17 17 17 17 17 17 17 17 16 16 16 16 16 17 16 16
19 19 19 19 18 18 18 19 19 19 19 19 19 19 19 19 19 19 19 19 19 19 19 18 18 18 18 18 18 18 18 17 17 17 17 17 17 17
20 20 20 20 20 19 20 20 20 20 20 20 20 20 20 20 20 20 20 21 20 20 20 19 19 19 18 18 19 19 18 18 18 18 18 18 18 19
20 20 21 21 21 20 21 21 21 21 21 21 21 21 21 21 21 20 21 21 21 21 21 20 20 20 19 19 19 19 18 18 18 19 18 19 19 19
21 21 21 22 22 22 22 21 21 21 21 21 21 22 22 22 22 22 22 21 22 22 22 22 21 21 20 20 19 19 19 19 20 20 20 19 19 19
22 22 22 23 23 23 23 22 22 22 22 22 22 22 23 23 23 23 23 23 23 23 23 23 22 22 22 21 20 20 20 20 20 20 20 20 20 19
24 23 23 23 23 23 23 23 23 23 22 23 23 23 24 24 24 24 24 23 24 24 24 23 23 23 23 22 22 21 21 21 21 21 20 20 20 20
25 24 24 23 24 24 24 24 24 24 24 23 24 24 24 25 25 25 25 25 24 24 24 24 24 24 24 24 23 22 22 21 21 21 21 21 21 21
25 25 25 24 25 25 25 25 25 25 25 25 25 25 25 25 25 26 26 26 25 25 24 24 24 24 24 24 24 24 23 22 21 21 22 22 22 22
25 25 25 25 26 26 26 26 26 27 26 26 26 26 26 26 26 26 26 26 25 25 25 25 25 24 24 24 24 24 24 23 23 23 23 23 23 24
27 27 26 26 26 27 26 27 27 27 27 27 27 27 27 27 27 26 26 26 25 25 24 25 25 25 25 25 25 24 24 24 24 24 24 24 24 25
27 27 27 27 27 27 28 28 27 27 28 28 27 27 27 27 27 26 26 26 26 25 25 25 26 26 26 25 26 26 26 26 26 26 26 26 26 26
28 28 27 27 27 28 28 28 28 28 28 28 28 28 27 27 27 27 26 26 26 27 26 26 27 27 26 26 26 27 27 27 27 27 27 27 27 27
28 28 28 28 28 28 28 27 27 27 27 27 27 27 27 27 27 27 27 27 27 27 27 27 27 27 27 27 26 26 28 28 28 28 28 28 28 28
29 29 29 28 28 28 28 27 27 27 27 27 27 27 26 27 26 27 27 28 28 27 27 26 26 27 27 27 27 27 28 28 28 29 29 29 29 28
30 30 29 29 29 28 28 28 27 27 27 27 27 27 27 27 26 26 27 28 28 28 27 27 27 27 28 28 28 28 28 28 28 29 29 30 30 29
31 31 31 30 30 29 28 28 28 28 28 28 27 28 28 27 27 27 27 27 28 28 28 28 28 28 28 28 28 28 29 29 29 29 29 29 29 29

GEFSNE_500_meanwind_258.txt.gz
Wind_Speed
12 12 11 11 11 11 12 12 12 11 12 12 12 12 12 12 12 12 13 13 14 14 14 14 15 15 14 13 13 13 13 13 13 14 14 13 13 13
13 13 12 12 12 12 12 12 12 12 13 13 12 12 12 12 12 13 13 14 14 14 15 15 15 15 14 14 13 12 13 13 14 14 14 14 13 14
14 14 13 13 13 13 13 13 13 13 13 13 13 13 13 13 13 14 14 14 15 15 15 15 15 15 14 14 14 14 14 14 14 14 15 15 14 14
16 15 14 14 14 14 14 14 14 14 13 13 14 14 14 14 15 15 15 15 15 15 16 15 15 15 15 16 16 15 15 15 15 15 15 15 15 14
17 17 16 16 16 15 15 15 15 15 15 14 14 15 15 16 16 16 16 16 16 16 16 16 16 16 16 16 17 16 16 16 16 16 16 16 16 15
18 18 17 17 17 17 17 17 17 17 16 16 16 16 16 17 17 17 18 17 17 17 17 17 17 17 17 17 18 17 17 17 17 17 16 16 16 16
19 19 19 19 18 18 18 18 18 18 18 18 18 18 18 19 18 18 18 17 18 18 19 19 18 18 18 18 18 18 17 17 17 17 17 17 17 17
20 20 20 21 20 20 20 20 19 19 19 19 19 19 19 20 19 19 19 19 19 19 20 20 20 19 19 19 19 19 19 19 18 18 18 18 18 17
22 22 22 22 22 22 22 21 21 21 21 21 21 20 20 21 20 20 20 20 21 21 20 20 20 20 20 20 20 20 20 19 19 18 18 18 17 17
23 23 23 23 24 24 22 22 22 22 23 22 22 22 22 22 21 21 21 21 21 21 20 20 20 20 21 21 21 20 20 19 19 19 18 18 18 18
24 24 25 25 25 25 24 23 23 23 24 24 23 23 23 22 22 22 22 22 22 21 21 22 22 22 22 22 22 22 21 20 20 20 19 19 18 18
25 25 26 26 26 26 26 25 24 24 25 25 24 24 24 23 23 23 23 23 23 23 22 23 22 22 22 22 23 22 21 21 21 20 20 19 19 19
26 26 27 27 26 26 26 25 25 25 25 26 26 25 25 24 24 24 24 24 24 24 24 24 24 24 23 23 23 23 22 22 21 21 20 20 20 19
27 27 27 27 26 26 26 26 26 26 26 26 26 26 25 25 25 25 25 25 25 25 25 25 24 25 24 24 23 23 22 22 22 21 21 21 21 21
26 26 27 27 27 27 27 27 27 27 27 27 27 26 26 26 26 27 27 27 26 26 26 25 25 25 25 25 24 23 23 23 23 23 22 21 21 22
26 26 26 26 27 27 27 28 28 28 28 27 27 27 27 27 27 27 27 27 27 27 26 26 26 26 26 26 25 24 24 24 24 24 23 23 23 23
26 26 27 28 28 28 28 28 28 28 28 28 28 28 28 28 28 28 27 27 27 27 27 27 27 27 27 27 26 25 24 24 24 24 24 24 24 24
27 27 28 28 28 28 28 28 28 28 28 28 28 28 28 28 28 28 27 27 26 26 26 26 27 27 27 27 27 26 25 25 25 25 25 25 25 25
28 28 28 28 28 28 28 29 29 28 28 28 27 28 28 28 28 28 27 26 26 26 27 27 27 28 28 27 26 27 26 26 26 26 26 26 26 26
29 29 29 29 29 28 28 29 29 29 29 29 28 28 27 27 27 28 28 28 27 27 27 27 27 28 27 27 27 27 28 27 27 27 26 26 26 27
30 30 30 30 29 29 30 30 30 30 30 30 29 28 28 28 28 28 28 29 28 28 28 28 28 28 29 29 28 28 28 28 28 28 28 28 28 28
31 31 31 31 31 31 31 31 31 31 31 31 30 29 29 29 29 30 30 29 29 30 30 30 29 29 29 29 29 29 29 29 29 29 30 30 30 29
32 32 32 32 32 32 32 31 31 31 31 31 31 30 30 30 30 31 31 31 31 31 31 30 30 29 29 29 29 29 29 29 29 29 29 30 31 31

GEFSNE_500_meanwind_264.txt.gz
Wind_Speed
12 12 11 10 10 10 11 11 10 10 10 10 10 11 11 12 13 13 13 13 12 12 13 13 13 13 13 13 14 14 13 13 14 14 13 14 15 15
14 13 13 12 12 12 12 12 12 12 11 11 11 12 12 12 12 13 13 13 13 13 13 13 14 13 13 14 14 14 13 13 13 14 13 13 14 15
15 15 15 14 14 15 15 15 14 13 13 12 12 12 12 13 12 13 13 13 13 14 14 14 14 14 14 14 14 14 14 14 14 14 14 15 15 15
18 18 17 16 17 16 16 15 15 15 14 14 14 14 14 13 13 14 14 14 14 15 15 15 15 15 15 14 14 15 15 14 15 15 15 15 16 16
20 19 19 18 18 17 17 16 16 16 16 16 16 16 15 15 15 15 15 16 16 16 16 16 16 16 16 16 16 16 16 15 15 16 16 17 17 16
21 20 21 20 19 18 17 17 17 17 17 17 17 17 17 17 17 17 18 18 18 17 17 17 17 17 17 17 17 17 16 16 16 16 17 17 17 17
21 21 21 21 20 19 19 18 18 19 19 19 19 19 19 19 19 19 19 19 19 19 18 19 18 18 18 18 18 18 18 17 18 18 18 18 18 17
22 22 21 21 21 21 21 20 20 20 20 21 21 20 20 20 20 20 19 20 20 20 20 19 19 19 19 19 18 19 19 19 19 19 19 19 19 19
22 22 22 22 22 22 22 23 23 22 22 22 22 22 21 21 21 21 21 21 21 21 21 20 21 20 21 20 20 20 20 20 20 20 20 20 20 20
23 23 23 23 23 23 24 25 24 24 24 24 23 23 23 22 22 22 22 22 22 21 21 21 21 21 21 21 21 21 21 21 21 21 21 21 21 21
24 24 24 24 24 24 25 25 25 25 26 25 25 24 24 24 23 23 23 22 22 22 22 22 22 22 22 22 23 23 23 23 23 22 22 22 22 22
25 25 25 25 25 25 26 26 26 26 26 26 25 26 26 26 25 25 24 24 24 24 24 24 24 23 23 23 24 24 24 24 23 23 23 23 23 23
25 26 26 26 26 26 26 26 26 26 26 26 26 26 26 26 26 26 26 26 25 25 25 25 25 25 25 24 25 25 25 24 24 24 23 23 23 23
25 26 26 27 27 27 27 27 27 27 26 26 26 27 27 27 27 27 27 27 26 26 26 26 26 26 26 26 26 26 26 25 25 25 24 24 24 24
26 27 28 28 28 27 27 27 27 27 27 27 27 27 27 27 27 27 27 27 27 27 27 27 27 27 27 27 27 27 26 26 26 25 25 25 25 24
27 27 27 27 27 28 28 28 28 28 28 28 28 27 27 27 27 27 27 28 28 28 28 28 28 28 28 28 28 28 27 27 27 26 26 26 26 25
28 28 28 28 28 28 28 29 29 29 28 28 28 27 27 28 28 28 28 28 29 29 29 29 29 29 29 29 28 28 28 28 27 27 27 27 27 27
28 29 29 28 28 29 29 29 30 30 29 29 29 28 28 28 29 29 29 29 29 29 30 30 29 29 29 29 29 29 29 29 28 28 28 28 27 28
28 29 29 29 29 29 30 30 30 30 31 30 30 30 30 29 29 30 30 30 30 30 30 29 29 29 29 29 29 29 30 30 29 29 29 28 28 28
29 29 29 29 30 30 30 30 30 30 31 31 31 30 30 30 30 30 31 31 31 30 30 30 30 29 29 29 29 30 31 31 30 29 29 29 28 29
29 30 30 30 30 30 30 31 31 31 31 31 31 31 31 31 31 32 31 31 31 31 30 30 30 29 29 29 29 30 31 31 31 30 30 29 29 29
30 30 30 30 30 31 31 31 32 32 31 31 32 32 32 32 33 33 32 32 31 31 31 31 30 30 30 30 30 30 31 31 32 31 31 30 30 29
31 31 31 31 31 31 31 31 32 32 32 32 32 33 33 33 33 33 33 33 32 31 31 31 31 31 30 31 31 31 31 32 32 32 32 32 31 31

GEFSNE_500_meanwind_270.txt.gz
Wind_Speed
16 16 16 16 15 15 15 15 15 14 14 14 14 14 14 14 14 14 15 15 15 15 16 16 15 15 14 14 15 15 15 15 16 16 16 16 16 15
17 17 17 17 17 17 16 17 17 16 15 15 15 15 15 15 15 16 16 16 16 16 16 16 15 15 15 15 15 16 16 16 16 16 16 16 15 15
17 17 18 18 19 18 18 18 18 18 17 17 17 17 17 16 16 17 16 16 16 17 17 17 17 16 16 16 16 16 17 16 16 16 16 15 15 16
18 19 19 19 20 20 19 19 19 19 18 18 18 18 18 18 18 18 18 18 18 18 18 18 18 17 17 17 17 17 17 17 16 15 16 16 15 16
20 20 21 21 21 21 20 20 20 20 20 20 20 20 19 19 19 19 18 18 18 18 19 19 19 18 18 19 18 18 18 17 17 16 16 16 16 16
22 22 22 22 22 21 21 21 21 21 21 21 21 21 21 20 19 19 19 18 18 19 19 20 20 20 20 19 19 19 19 18 18 18 17 17 18 18
23 24 24 23 23 22 22 22 22 22 22 22 22 22 21 21 20 20 19 19 19 20 20 20 20 20 20 20 20 20 20 19 19 19 19 18 18 19
24 25 25 25 24 23 23 23 23 23 23 22 22 22 22 21 21 20 20 20 20 20 21 21 21 20 21 21 20 20 21 20 20 20 20 20 20 20
25 25 26 25 24 24 24 23 24 24 23 23 23 23 23 22 22 22 22 22 21 21 21 21 21 21 21 20 20 21 21 20 20 21 21 21 21 21
25 25 25 26 26 26 25 24 24 24 24 24 24 23 23 23 23 23 23 23 23 23 23 22 22 22 21 21 20 20 21 21 22 22 22 22 21 21
26 26 26 26 26 26 26 25 25 25 25 25 24 24 24 24 24 24 24 24 24 24 24 24 23 23 23 22 22 22 23 23 23 23 23 23 23 23
26 26 26 26 26 26 26 26 26 26 26 26 26 25 26 26 26 26 26 26 26 25 25 25 25 25 24 24 24 24 24 24 24 24 24 24 25 25
27 27 26 26 27 27 27 27 27 27 27 28 27 27 27 27 27 28 28 28 27 27 27 26 25 26 25 25 25 26 26 26 25 25 25 24 25 25
27 27 27 27 27 27 27 28 28 28 28 28 28 28 28 29 29 29 29 29 29 29 29 27 26 26 26 26 26 27 27 27 27 26 26 26 26 26
28 28 28 28 28 28 28 29 29 29 29 29 29 29 29 29 30 30 30 29 29 30 30 29 29 28 28 27 28 28 28 28 28 27 27 26 26 26
28 29 29 29 29 28 29 29 29 29 29 29 29 29 29 30 30 29 29 30 29 29 30 30 29 29 29 29 29 28 28 28 28 28 28 28 27 26
30 29 29 29 29 29 29 29 29 29 29 29 29 29 29 30 30 30 30 30 30 30 30 30 29 29 29 29 29 29 29 28 28 29 29 29 28 28
30 30 29 29 29 29 29 29 29 29 30 30 30 30 30 30 31 31 31 31 31 31 30 30 30 30 30 30 30 30 30 29 30 30 30 29 28 28
30 30 29 28 29 29 29 29 29 30 30 30 31 31 31 31 31 31 31 31 31 31 31 31 31 31 31 31 30 30 30 30 30 30 30 29 29 29
30 29 28 29 29 30 30 30 30 30 31 31 31 31 31 32 32 32 32 32 32 32 32 32 31 31 32 31 31 31 31 31 30 30 30 30 30 30
31 30 30 30 30 30 30 31 31 31 32 32 32 32 32 32 32 32 31 31 32 32 32 32 32 31 31 31 31 31 32 31 31 30 30 30 30 30
32 32 31 32 31 31 31 31 32 32 32 33 33 32 32 32 32 31 31 31 31 31 31 32 32 32 32 31 31 31 32 32 32 31 31 31 31 31
32 33 33 33 33 32 32 32 33 33 33 33 33 33 32 32 32 32 32 32 32 32 32 32 32 33 32 32 32 32 32 32 33 33 32 33 32 32

GEFSNE_500_meanwind_276.txt.gz
Wind_Speed
16 17 17 17 16 17 17 17 17 17 17 18 18 19 18 19 19 19 18 18 17 17 17 17 17 17 17 17 18 18 19 18 17 17 17 17 16 17
17 17 17 17 18 17 18 18 19 19 19 19 20 20 20 20 21 20 19 18 18 18 17 17 17 18 18 18 18 19 19 18 18 18 19 18 18 19
18 18 18 18 19 19 19 20 20 20 20 20 20 20 21 21 21 20 19 18 18 17 17 17 18 18 19 19 19 20 20 19 19 19 20 20 20 21
19 19 20 20 20 20 20 20 20 20 20 20 21 21 21 21 20 20 20 20 19 18 19 19 19 19 19 20 19 20 20 20 20 21 21 21 21 21
20 20 21 21 21 21 21 21 21 21 21 21 21 22 21 21 21 20 20 20 20 20 19 19 20 20 20 20 20 21 21 21 21 22 22 22 21 21
21 21 22 21 21 21 22 22 22 21 22 22 22 21 21 21 21 21 22 22 21 21 20 20 20 20 20 21 20 20 20 20 21 21 21 21 21 21
22 22 22 22 21 21 22 22 22 22 22 22 22 22 22 21 21 22 22 22 21 21 21 21 21 21 21 21 21 21 21 21 21 21 20 20 20 19
23 23 23 23 22 22 22 22 22 22 22 22 23 22 22 22 22 21 22 22 22 22 22 22 21 21 21 21 21 21 22 22 21 21 21 21 19 19
24 24 24 24 24 24 23 23 23 23 23 23 23 22 22 22 22 22 22 22 22 22 22 22 22 22 22 22 22 22 22 22 22 22 22 21 20 20
25 25 25 24 25 25 25 25 25 25 24 24 24 23 23 23 23 23 23 23 22 22 23 23 22 23 23 23 23 23 23 23 23 23 24 22 21 21
26 27 26 26 26 27 26 26 25 25 25 25 25 25 24 24 23 23 23 24 24 24 24 23 23 23 24 24 24 24 24 24 24 24 25 24 23 22
28 28 27 27 27 28 28 27 26 26 26 26 26 26 25 25 25 24 25 25 25 25 25 25 25 25 25 25 25 25 25 25 25 24 24 24 24 23
28 28 28 28 28 28 28 28 27 27 27 27 27 27 27 26 27 27 27 27 27 27 26 27 26 26 26 26 26 26 26 26 26 26 25 25 25 24
29 30 30 29 29 28 29 29 28 28 27 27 27 27 28 27 27 28 28 28 28 28 28 28 28 28 28 28 27 27 27 27 27 27 26 26 25 25
30 31 31 31 30 29 29 29 29 29 29 28 28 28 29 29 29 29 30 30 30 30 29 30 30 30 30 30 30 29 28 28 28 28 27 26 26 26
30 31 31 32 31 30 29 29 29 29 29 29 29 29 29 29 30 30 31 32 32 31 31 30 31 30 30 30 30 30 29 29 28 28 28 27 27 27
30 31 31 32 31 30 30 30 30 30 31 30 30 30 30 31 31 31 32 32 32 32 31 31 31 31 30 30 30 30 30 30 29 29 29 29 28 28
31 32 32 32 32 31 32 31 31 31 31 32 32 32 32 32 32 32 32 32 33 32 32 31 31 30 30 30 30 30 30 30 30 30 30 30 29 29
30 31 32 33 32 32 32 32 32 32 32 32 32 33 33 33 32 32 32 32 33 33 32 32 31 31 31 30 30 30 30 31 31 31 31 31 31 30
31 32 32 33 33 32 33 33 33 33 33 33 33 33 34 34 33 33 33 33 33 33 32 32 32 31 31 31 31 31 31 31 32 32 32 32 32 31
31 32 32 32 32 33 33 33 34 34 34 35 34 34 34 34 35 34 33 33 33 33 33 32 32 33 33 32 32 32 33 33 33 33 33 33 32 33
32 32 32 32 32 33 33 33 34 34 34 35 35 35 34 35 35 35 34 33 33 33 32 32 33 34 34 33 33 33 34 34 35 34 34 34 34 33
32 32 32 32 33 33 33 33 34 35 35 34 35 35 35 35 35 35 35 34 33 33 33 33 34 34 35 34 34 34 34 35 35 35 35 35 35 35

GEFSNE_500_meanwind_282.txt.gz
Wind_Speed
18 18 18 17 18 18 18 18 18 18 18 19 20 20 19 20 20 20 20 20 20 20 19 19 19 18 18 17 17 17 17 18 18 17 17 17 16 17
18 18 18 18 19 19 18 19 19 19 19 20 20 21 21 22 21 21 21 21 20 20 20 19 19 19 18 17 17 17 17 18 18 18 17 17 17 17
19 19 19 19 20 20 20 20 20 20 20 20 20 21 22 22 22 21 21 21 21 21 20 20 19 19 19 19 18 18 18 18 18 18 18 18 18 18
20 20 21 22 21 21 21 22 22 21 21 20 21 21 22 22 22 22 21 21 22 21 21 20 20 20 19 19 19 19 18 19 19 19 19 19 19 19
21 21 21 22 22 23 23 23 23 23 23 22 22 21 22 22 22 21 21 22 22 21 20 20 20 20 19 19 19 19 19 19 19 20 20 20 19 19
22 22 22 22 23 24 24 24 25 24 24 23 22 22 22 22 22 21 21 21 21 21 20 20 20 20 20 19 19 19 19 19 20 20 20 20 20 19
23 23 23 24 23 24 24 24 25 25 24 24 23 23 22 22 22 22 22 21 20 20 20 19 20 20 20 20 20 20 19 20 20 20 21 21 21 20
25 25 25 25 25 25 25 25 25 25 24 24 24 24 23 23 23 22 21 20 20 20 21 20 20 21 21 21 21 21 21 20 21 21 22 22 22 22
26 26 26 26 26 26 26 26 26 26 25 25 25 24 24 24 23 23 22 21 21 21 22 21 21 22 22 21 22 22 22 22 22 23 23 23 23 23
27 27 27 27 27 27 27 27 27 27 26 26 26 25 25 25 24 24 23 23 22 22 22 22 22 23 22 22 22 22 22 23 23 23 23 23 24 24
28 28 28 28 28 28 28 28 28 28 27 27 27 27 26 26 25 25 25 25 24 24 24 24 23 23 23 23 23 24 24 24 24 24 24 24 25 24
28 28 28 28 28 28 29 29 29 28 28 27 27 27 27 27 27 28 27 26 26 25 26 25 25 25 24 25 26 26 26 25 25 26 25 25 25 25
29 29 29 29 29 29 29 29 29 29 29 28 28 28 28 28 29 29 28 28 28 28 28 27 27 27 26 26 27 27 27 27 27 27 26 26 25 25
30 30 30 31 31 31 31 31 30 30 30 30 30 30 30 29 29 30 30 30 30 29 29 29 29 29 28 28 28 28 28 28 28 28 28 27 27 26
31 31 31 32 32 32 32 32 32 31 31 31 32 32 32 32 31 31 31 31 31 30 30 31 31 31 30 30 29 29 29 29 29 29 29 28 27 27
31 31 31 31 32 32 33 32 33 33 33 33 33 34 33 32 32 32 31 31 32 32 32 33 33 33 32 31 31 30 29 29 29 30 29 29 28 28
31 31 31 32 32 32 33 33 33 33 33 33 33 33 33 32 31 32 32 32 32 32 33 33 33 33 33 32 31 31 30 29 29 29 29 29 29 29
31 30 31 31 31 32 32 32 33 33 33 33 33 33 34 33 33 33 33 33 33 33 33 33 33 33 32 32 31 31 30 30 29 29 29 29 29 30
32 31 32 32 32 32 32 32 32 33 33 33 34 34 35 35 34 34 34 34 34 34 33 33 33 32 31 31 30 31 30 30 30 29 29 29 29 29
33 33 33 33 33 33 33 33 33 33 33 34 35 35 35 35 35 35 35 34 34 34 34 33 33 32 32 31 31 31 31 31 31 30 30 30 29 30
34 33 33 33 33 33 34 34 34 34 34 35 35 35 35 35 34 34 34 34 34 34 34 34 34 33 32 32 32 31 32 32 32 32 31 31 31 30
33 33 32 33 33 33 33 33 34 34 34 34 34 34 34 34 34 33 33 34 34 34 34 34 34 34 33 33 33 32 32 33 33 33 33 33 33 32
31 31 31 31 32 32 32 32 32 33 33 33 34 34 34 34 33 33 33 33 33 33 34 34 34 35 35 34 34 34 33 34 34 34 34 35 35 34

GEFSNE_500_meanwind_288.txt.gz
Wind_Speed
18 18 18 17 17 18 17 17 17 17 18 19 19 18 18 19 19 19 19 19 19 19 20 20 20 21 21 21 21 22 23 23 22 21 21 21 21 21
19 19 19 19 19 19 19 19 19 19 18 19 20 20 20 21 20 20 20 20 20 20 20 20 20 21 21 21 22 22 23 23 22 21 21 21 21 22
20 20 20 20 20 20 20 20 20 20 20 20 21 21 20 21 21 21 21 21 20 20 21 21 21 21 20 20 20 20 20 21 21 20 20 20 21 22
20 21 21 21 21 21 21 22 21 21 21 21 22 22 22 22 22 22 21 22 22 21 21 21 21 21 21 21 20 20 20 20 21 21 21 21 21 21
21 21 22 22 21 22 22 23 23 22 22 22 22 23 23 23 23 23 23 23 23 23 23 22 22 22 21 21 20 20 20 20 21 21 21 21 22 23
22 22 23 23 22 23 23 23 24 24 24 25 24 23 23 23 23 24 24 24 23 23 23 23 23 23 22 22 21 21 20 20 21 21 21 21 22 23
23 23 24 23 23 24 24 24 24 25 25 25 25 24 23 24 24 24 24 24 24 24 24 24 23 23 23 23 22 22 21 21 21 22 22 22 23 23
24 24 24 24 24 25 25 25 25 25 25 25 25 24 24 25 24 24 24 24 24 24 24 24 24 24 23 23 23 23 23 22 23 23 23 24 24 24
24 25 25 25 25 25 25 25 25 25 25 25 25 25 25 24 25 25 25 24 24 25 24 24 25 25 24 24 24 24 24 24 24 24 25 25 26 26
26 25 25 26 26 26 26 26 26 26 27 27 26 26 26 26 26 26 26 25 24 24 25 25 25 25 25 25 25 25 25 25 26 26 27 27 27 27
26 27 26 26 27 27 27 27 27 28 29 29 28 28 28 27 27 27 27 27 26 26 26 26 26 26 26 26 26 26 26 27 27 27 27 27 27 28
28 27 28 28 28 28 28 28 28 29 29 30 29 29 28 27 27 28 29 28 28 28 28 29 28 28 27 28 27 26 26 27 28 28 27 27 28 28
29 29 29 29 29 29 29 29 29 30 31 31 31 30 30 30 29 29 30 30 29 29 29 30 30 30 29 28 28 28 28 28 28 28 27 27 27 27
30 30 30 30 30 30 30 30 31 31 31 31 31 31 31 31 31 31 31 31 31 31 30 31 31 31 30 29 29 29 29 29 28 28 29 28 28 28
30 30 31 31 31 31 32 31 32 32 32 32 32 33 33 33 32 31 31 32 31 31 31 31 32 32 31 31 31 31 30 30 30 30 29 29 29 30
31 31 31 32 32 32 32 32 32 32 32 32 33 33 34 34 33 33 33 33 33 32 32 32 32 32 32 32 31 31 31 31 31 32 32 31 31 30
32 32 32 32 32 32 32 33 33 33 33 32 33 33 34 34 34 34 33 33 33 33 32 32 32 32 32 32 31 31 31 31 32 32 32 32 31 31
32 32 32 32 32 32 33 33 33 33 33 33 33 33 33 33 34 34 34 33 33 33 33 33 33 33 33 32 32 32 32 32 32 32 33 32 31 31
32 32 32 32 32 32 32 32 32 32 32 32 32 32 32 33 34 34 34 34 33 33 34 34 34 34 33 33 32 32 33 33 33 32 32 32 32 32
32 32 32 32 32 32 32 32 32 32 32 32 32 32 32 32 32 33 33 34 34 34 34 35 35 34 34 34 33 33 33 33 33 32 32 32 33 33
32 32 32 32 32 32 32 32 32 33 33 33 33 33 32 32 32 32 33 33 34 34 34 34 35 35 35 34 34 34 34 34 33 33 33 33 33 33
33 32 32 32 32 32 32 32 32 32 33 33 33 33 33 33 33 33 33 33 33 33 34 34 35 35 35 35 34 34 34 34 34 33 33 34 34 34
32 32 32 32 33 32 32 32 32 32 32 33 33 33 33 33 34 33 33 32 32 33 34 35 35 35 36 36 35 34 34 33 33 33 33 34 34 34